Content
SEND FEEDBACK

Daily
Averages
Monthly
Summary
Philippines

OLONGAPO, PHILIPPINES


Home > Asia > Philippines
Elevation: 55 feet     Latitude: 14 48N     Longitude: 120 16E

WEATHER
 
SELECT A DAY
Number of Records: 138,504;   Date Range: 7/31/96 - 9/30/14
 
SHARE

PRINT THIS DATA

[ ← Previous Day ]
WEATHER ALMANAC - JULY 31, 2013
[ Next Day → ]
[ °C ]   °F
Weather ElementAverageHighLow
Temperature78.8 °F84.2 °F (1:00 pm)76 °F (11:00 pm)
Dewpoint75.5 °F77 °F (1:00 am)71 °F (2:00 pm)
Humidity89.6 %100 % (1:00 am)57 % (2:00 pm)
Barometer28.60 in29.83 in (2:00 pm) (7:00 pm)
Wind Speed7.1 mph12.7 mph (6:00 am)
Weather ElementAverage
Visibility5.2 mi
Wind DirectionSSE (141.8 °)

Weather ElementTotal
Precipitation---
Cooling Degree Days15.1 (Base 65)
Growing Degree Days30.1 (Base 50)
Averaged from 28 records on July 31, 2013
WEATHER CONDITIONS BREAKOUT
WIND DIRECTION BREAKOUT
WEATHER BY HOUR - JULY 31, 2013
[ °C ]   °F
Local TimeTemperatureDewpointHumidityBarometerVisibilityWind DirectionWind SpeedGust SpeedPrecipitationEventsConditions
1:00 AM77.0 °F77.0 °F100 %29.65 in6.2 miSSE (150°)4.6 mphRainLight Rain Showers
2:00 AM77.0 °F77.0 °F100 %29.64 in4.0 miSSE (150°)4.5 mphRainLight Rain
2:00 AM77.0 °F77.0 °F100 %29.62 in4.3 miSSE (150°)4.6 mphRainLight Rain
5:00 AM77.0 °F76.0 °F95 %29.62 in7.0 miEast (90°)8.9 mphRainLight Rain
5:00 AM77.0 °F75.2 °F94 %29.59 in6.2 miEast (90°)9.2 mphRainLight Rain
6:00 AM78.8 °F75.2 °F89 %29.62 in5.6 miENE (70°)12.7 mphRainLight Rain
7:00 AM78.8 °F75.2 °F89 %29.65 in5.6 miSSE (150°)5.8 mphRainLight Rain
8:00 AM80.6 °F77.0 °F89 %29.65 in5.6 miVariable2.3 mphRainLight Rain
8:00 AM80.0 °F77.0 °F87 %29.66 in6.0 miSouth (170°)2.2 mphRainLight Rain
9:00 AM78.8 °F75.2 °F89 %29.68 in2.2 miSSE (150°)10.4 mphRainRain
10:00 AM77.0 °F75.2 °F94 %29.68 in2.5 miSouth (170°)10.4 mphRainLight Rain
11:00 AM77.0 °F77.0 °F98 %29.68 in6.0 miESE (110°)8.9 mphRainLight Rain
11:00 AM77.0 °F75.2 °F94 %29.68 in5.6 miESE (110°)9.2 mphRainLight Rain
12:00 PM78.8 °F75.2 °F89 %29.65 in5.0 miSE (130°)4.6 mphRainLight Rain
1:00 PM84.2 °F75.2 °F74 %29.62 in5.6 miSouth (170°)4.6 mphRainLight Rain
2:00 PM84.0 °F71.0 °F57 %29.83 in6.0 miSSE (160°)8.9 mphRainLight Drizzle
2:00 PM84.2 °F75.2 °F74 %29.62 in5.6 miSSE (160°)9.2 mphOvercast
3:00 PM82.4 °F77.0 °F84 %29.62 in5.6 miSSE (160°)4.6 mphRainLight Rain Showers
4:00 PM82.4 °F77.0 °F84 %29.62 in5.0 miSouth (190°)8.1 mphRainLight Rain
5:00 PM78.0 °F76.0 °F92 %29.83 in5.0 miSE (140°)6.7 mphRainDrizzle
5:00 PM78.8 °F75.2 °F89 %29.62 in5.0 miSE (140°)6.9 mphRainRain
7:00 PM78.8 °F75.2 °F89 %5.6 miSouth (170°)8.1 mphRainLight Rain Showers
8:00 PM77.0 °F74.0 °F90 %29.66 in5.0 miSouth (170°)6.7 mphRainDrizzle
8:00 PM77.0 °F75.2 °F94 %29.65 in5.0 miSouth (170°)5.8 mphRainLight Rain
9:00 PM77.0 °F75.2 °F94 %29.68 in5.0 miSouth (170°)8.1 mphRainHeavy Rain
10:00 PM77.0 °F75.2 °F94 %29.68 in5.0 miSSW (200°)9.2 mphRainHeavy Rain
11:00 PM76.0 °F74.0 °F92 %29.68 in5.0 miEast (80°)4.5 mphRainLight Drizzle
11:00 PM77.0 °F75.2 °F94 %29.68 in5.0 miSSW (200°)9.2 mphRainLight Rain Showers
Hourly data recorded from RPLB, located miles away from Olongapo, Philippines







STORIES FROM OUR PARTNERS